RH
83 88 82 92 90 79 74 72 72 70 69 66 60 61 60 43 30 32 36 27 20 24 20 24 35 59 78 89 68 47 50 33 62 56 73 84 78 36 45 50 37 25 24
83 86 79 89 87 86 77 75 72 70 66 64 66 64 57 42 41 46 37 22 34 37 22 60 76 75 62 86 76 50 49 29 43 60 85 92 49 66 72 67 40 24 25
82 81 80 84 87 84 89 81 74 72 67 63 67 64 58 50 46 50 31 24 71 82 40 57 81 81 78 82 62 42 46 31 36 80 84 55 59 87 86 64 27 27 26
88 88 87 82 86 85 84 85 82 78 75 69 68 68 61 54 49 53 38 41 82 94 92 69 38 56 78 81 56 36 50 37 34 40 39 46 85 95 71 33 29 29 28
93 87 80 91 90 90 84 85 82 82 81 79 73 78 66 59 53 53 59 53 78 89 91 84 36 37 57 62 64 40 63 77 53 42 54 84 81 47 29 30 31 31 29
90 76 84 86 91 96 88 83 85 83 83 81 75 76 77 64 59 58 66 61 64 78 80 53 30 31 44 47 64 47 75 81 80 77 77 75 54 30 29 32 33 33 31
88 79 76 81 92 95 97 84 84 83 82 83 78 76 76 74 62 57 76 79 65 70 75 60 37 26 36 36 53 52 71 74 77 79 75 49 34 29 32 34 34 34 33
71 78 79 80 83 85 93 95 87 84 82 84 83 78 78 79 74 65 59 55 81 70 59 46 38 28 31 32 44 49 64 70 67 61 62 49 39 31 33 35 36 35 34
29 60 89 78 80 82 86 93 96 87 82 81 82 84 81 79 78 77 67 62 55 82 81 53 34 33 31 35 37 43 56 58 55 51 59 50 41 32 34 36 36 36 36
17 16 20 56 88 80 82 89 87 99 91 81 79 81 82 81 80 76 75 64 60 58 84 84 49 28 31 34 38 41 46 48 44 43 45 48 46 42 36 38 39 39 39
18 17 14 13 25 61 82 80 84 84 95 98 86 82 82 81 77 76 74 68 64 52 66 83 85 50 28 31 34 39 42 41 42 39 37 42 42 43 38 39 39 40 40
18 17 14 12 11 14 30 68 80 88 84 90 93 92 90 90 87 81 76 73 68 66 60 72 82 87 62 31 33 36 36 35 36 36 36 41 44 46 46 44 40 40 40
22 21 21 18 17 14 12 16 45 67 81 86 85 87 92 92 93 91 84 76 71 69 66 68 68 80 84 62 31 35 40 38 35 33 34 40 46 44 48 47 45 41 41
25 24 25 25 23 21 18 15 13 20 45 71 92 84 96 91 91 92 92 89 84 77 72 71 70 67 72 84 72 32 36 40 38 36 34 39 45 46 49 50 50 48 44
29 28 29 30 31 31 28 25 21 16 15 20 36 54 77 99 99 97 93 92 91 88 83 79 77 73 70 73 82 83 35 34 40 39 38 37 41 48 51 52 49 49 50
34 35 35 35 36 36 36 35 34 30 26 21 17 20 32 41 80 99 100 96 93 91 91 87 81 83 78 73 75 78 84 51 33 40 39 38 40 42 47 53 57 57 54
42 40 38 35 32 32 31 32 32 32 33 30 27 22 20 23 30 50 91 100 99 92 93 97 96 86 88 85 78 77 79 85 78 39 36 39 38 39 47 51 54 58 57
39 36 34 35 34 33 33 32 31 31 31 32 33 32 29 25 25 26 30 59 92 99 98 99 98 94 92 90 87 84 80 81 82 83 62 39 40 42 43 44 50 53 55
33 36 40 41 40 39 39 40 40 40 39 37 35 35 39 40 36 33 27 27 37 76 98 99 99 99 98 93 89 81 83 83 79 84 87 77 52 42 47 48 52 54 53
31 43 48 48 58 61 61 62 61 57 52 49 45 40 38 44 45 41 40 34 30 30 64 79 97 100 93 94 98 92 87 84 81 81 80 87 83 68 46 46 53 57 56
31 43 55 62 64 68 71 74 69 65 58 51 52 54 50 56 59 52 46 44 40 36 29 46 64 91 99 84 100 100 97 90 86 82 80 80 85 79 65 51 53 59 60
46 58 68 71 73 77 82 86 83 74 76 82 83 76 73 73 68 58 54 52 49 43 32 38 61 79 85 96 98 100 100 98 98 92 84 80 78 78 76 68 61 63 65
58 73 80 74 76 77 85 86 77 85 86 89 82 80 76 74 68 64 61 60 57 54 47 38 43 54 81 79 97 100 95 92 97 94 90 85 78 77 80 80 74 73 66
53 73 81 78 83 82 84 79 95 99 98 93 92 87 78 74 74 70 67 65 62 60 63 72 66 65 63 73 70 99 98 99 98 93 95 82 97 98 89 97 89 86 84
43 66 74 77 91 85 86 91 94 95 100 98 94 84 78 75 74 72 71 69 65 70 87 89 84 77 66 65 61 59 71 90 99 100 98 91 88 77 80 80 98 96 95
34 51 68 78 85 86 82 86 98 99 92 89 81 76 78 76 74 69 70 75 80 85 88 85 79 73 70 68 62 73 80 85 93 99 100 100 96 91 79 74 84 86 87
Wind_Speed
3 3 4 4 5 4 5 7 7 7 6 4 3 2 1 1 1 1 1 1 2 3 4 7 8 9 7 6 6 6 6 6 9 10 10 8 6 6 8 9 9 8 7
3 2 4 4 4 6 6 7 7 7 6 4 3 2 1 1 1 2 1 3 5 6 7 9 5 4 5 6 5 5 5 5 8 10 10 8 5 6 8 8 7 7 6
2 1 3 4 7 6 6 7 7 7 5 4 4 3 2 2 2 1 1 4 6 5 6 7 5 4 5 4 3 3 5 6 9 10 7 4 6 5 6 5 5 6 6
4 2 1 4 7 7 8 8 7 7 6 4 4 3 2 2 2 1 3 6 7 6 5 2 5 6 5 5 4 4 5 6 8 8 6 6 8 7 2 2 4 4 5
4 2 1 4 7 7 8 8 9 8 7 6 5 4 3 3 4 3 3 5 7 7 8 4 5 8 8 7 7 6 6 6 7 8 8 7 5 1 2 2 3 4 4
3 3 1 5 6 7 7 9 9 10 10 9 8 7 6 5 5 5 4 5 7 6 8 6 5 6 9 9 9 8 9 7 5 6 6 5 4 2 0 0 1 2 3
1 1 1 4 6 6 7 9 11 10 11 11 11 10 9 6 6 7 9 8 8 8 10 8 6 7 9 10 11 11 10 9 7 7 7 5 4 3 2 2 1 0 1
0 2 1 2 7 8 9 9 11 12 12 12 12 12 11 10 9 9 10 11 12 11 10 9 8 8 9 10 12 12 11 10 9 8 8 8 6 5 4 3 3 2 1
3 3 2 5 6 8 10 9 11 13 14 14 13 13 13 13 13 12 12 13 14 15 12 10 10 10 11 12 14 14 13 12 11 10 10 9 8 7 6 6 5 4 3
6 5 5 6 9 10 11 11 12 12 15 15 16 15 16 16 16 16 15 14 15 16 16 15 12 12 13 14 15 17 16 15 14 13 12 11 10 9 9 8 8 7 6
8 10 9 10 11 12 13 13 14 15 16 17 17 18 18 19 19 19 18 17 17 18 18 18 17 14 15 16 17 18 20 19 18 16 14 13 13 11 11 10 10 9 9
10 9 11 11 12 14 16 16 17 17 18 18 19 21 22 22 21 21 21 20 19 19 20 20 20 19 18 19 20 20 22 21 21 20 18 16 15 14 13 12 12 12 11
12 13 14 14 14 15 16 19 20 21 21 21 21 22 23 25 26 25 24 23 23 22 23 24 23 25 24 21 22 23 23 24 23 22 21 19 18 18 16 14 13 14 13
13 15 16 16 17 17 18 19 21 23 25 25 25 25 25 26 27 28 28 27 26 26 26 26 27 27 27 27 24 25 26 25 25 25 24 23 21 19 18 18 16 15 16
17 18 18 20 21 22 22 22 23 24 25 27 28 27 26 28 29 29 30 30 29 29 30 30 30 30 30 30 30 28 28 29 28 27 27 26 25 23 22 20 19 17 16
20 22 24 25 27 29 29 29 28 27 27 28 29 30 30 29 31 29 30 32 32 33 33 33 33 34 34 33 33 33 32 31 31 31 30 29 29 28 26 24 22 21 18
23 27 29 31 33 34 34 35 35 34 33 32 31 31 32 33 33 33 34 32 34 34 34 36 37 37 37 37 36 36 36 35 34 34 34 34 33 33 30 28 27 24 22
23 25 27 29 30 32 33 34 35 35 36 35 35 33 33 34 34 35 34 36 36 29 35 36 36 39 40 41 40 38 38 38 39 38 37 37 37 36 35 33 31 29 26
22 26 27 27 27 28 27 28 29 31 32 33 33 34 34 33 33 34 36 36 35 40 34 31 34 39 40 41 43 42 43 43 41 41 42 40 40 40 38 37 35 32 30
23 25 27 26 25 24 24 24 24 26 27 29 31 30 31 33 32 32 34 34 34 37 40 40 35 38 40 41 43 46 44 45 45 43 42 43 43 43 43 42 39 37 34
23 25 25 25 23 24 25 26 26 24 22 22 22 23 25 26 28 29 30 30 31 32 36 36 34 37 39 41 39 42 45 46 47 47 42 42 44 44 43 45 43 41 39
22 23 21 22 24 23 22 21 21 18 16 16 14 12 12 14 18 21 24 25 24 27 30 33 30 30 36 36 38 32 30 32 40 44 45 47 48 48 47 45 45 43 41
19 19 19 21 22 22 18 17 14 14 15 15 12 11 11 12 13 14 15 17 19 21 25 26 29 29 30 33 32 28 22 21 24 30 35 40 46 51 51 45 44 42 41
19 17 18 20 19 19 16 16 15 19 19 16 17 15 12 10 10 13 15 18 21 20 22 22 24 25 26 31 32 33 38 38 23 24 30 36 37 39 44 48 47 46 45
18 18 18 17 16 17 15 14 14 15 15 14 15 14 12 9 10 12 16 18 19 20 21 23 25 26 28 30 31 34 39 40 35 34 32 33 34 38 45 39 44 53 52
16 17 16 15 15 16 17 16 15 15 15 14 14 14 11 12 12 14 14 15 16 18 21 24 26 28 29 31 32 33 34 36 33 32 33 36 37 40 49 43 47 43 42
Wind_Direction
120 132 187 204 201 176 182 174 185 187 189 197 203 198 202 225 235 291 294 267 126 118 124 143 140 149 139 125 126 114 115 142 139 151 143 132 114 102 102 96 79 69 75
131 121 169 247 242 215 193 187 191 192 194 192 188 185 204 245 295 317 297 146 121 100 110 111 121 146 158 155 138 118 116 146 147 141 143 137 108 104 113 90 58 55 69
98 357 208 231 249 239 224 205 198 199 208 207 192 202 219 244 264 288 177 152 132 110 110 135 154 156 167 162 162 143 137 154 154 153 150 145 116 126 124 61 47 61 67
70 58 89 221 246 242 234 229 220 215 222 237 218 225 241 269 267 229 165 165 156 169 197 179 212 204 190 195 200 181 160 158 164 164 163 150 144 148 148 38 58 64 74
67 69 196 237 241 248 238 234 233 233 235 244 249 232 250 268 266 242 202 186 183 192 224 244 260 220 215 216 212 200 183 170 162 157 154 151 155 259 349 43 55 58 74
103 72 312 270 249 252 250 240 241 238 241 244 242 240 247 259 258 244 231 215 211 209 219 253 263 225 217 217 212 204 192 181 166 175 178 188 222 258 272 71 55 62 84
156 204 136 274 269 272 260 254 250 246 248 248 248 245 246 249 249 248 240 241 230 228 236 249 250 236 223 216 211 206 205 213 218 223 225 231 245 236 234 239 268 25 101
255 277 285 286 272 273 279 266 255 254 253 251 251 251 249 254 259 256 253 250 244 243 250 253 249 238 228 221 214 214 215 220 224 229 228 243 242 230 233 243 250 247 219
17 349 281 278 261 273 270 275 270 262 256 253 252 252 251 253 257 257 260 256 251 249 251 257 250 243 233 228 224 223 224 229 234 238 242 246 243 236 239 244 249 250 241
338 321 287 269 257 264 263 264 265 265 259 253 254 255 254 256 258 259 259 259 257 251 250 251 253 247 240 235 232 234 236 239 242 244 245 244 246 245 240 245 250 253 250
302 306 295 274 265 260 258 263 261 268 268 261 260 259 257 255 259 260 262 262 259 253 250 252 252 251 244 239 238 239 243 246 247 249 248 246 246 245 243 249 254 257 258
302 300 296 289 272 263 260 257 256 254 259 262 262 261 261 261 260 262 262 261 259 256 252 252 251 251 250 243 240 241 246 249 250 250 248 246 245 243 246 249 251 256 259
313 311 302 295 291 282 268 260 256 256 260 261 264 263 261 261 260 259 259 258 258 258 257 254 249 247 248 250 247 246 247 249 251 251 249 246 247 245 247 249 252 255 257
307 306 304 300 295 289 284 276 264 258 255 255 256 258 259 259 262 261 258 258 258 257 258 258 256 254 252 252 252 250 250 249 249 250 250 248 246 245 247 251 252 253 255
307 304 303 302 300 296 289 282 276 270 263 259 256 256 258 259 255 261 261 258 257 258 257 259 259 257 255 254 252 253 252 251 250 250 250 248 247 248 247 250 253 254 258
308 307 306 302 300 297 294 289 284 278 271 266 261 258 257 259 258 258 257 260 258 258 257 259 260 261 259 258 256 253 253 253 252 251 251 250 248 248 249 247 249 251 255
316 313 308 304 301 296 291 287 284 280 277 273 268 262 259 259 259 258 261 260 263 261 260 259 259 259 259 259 257 254 253 253 253 252 252 251 250 249 247 248 247 249 252
320 317 314 308 303 299 294 289 286 283 279 274 269 266 262 259 259 259 260 258 261 271 265 263 261 260 259 258 259 258 256 255 253 252 252 252 251 250 250 248 247 248 249
328 325 323 319 312 305 300 295 288 286 283 281 275 269 266 264 261 260 260 260 259 259 266 263 272 262 262 261 259 261 262 260 258 255 252 251 252 252 251 249 248 249 248
336 336 333 331 330 323 316 309 300 293 288 285 281 274 265 262 264 262 262 262 262 258 260 266 262 271 263 263 266 264 264 265 264 261 259 258 253 253 251 249 248 247 247
338 340 341 341 339 332 326 322 314 314 311 306 298 284 275 266 266 268 264 263 264 265 261 263 268 261 262 258 272 269 269 267 266 264 257 259 256 253 252 249 248 248 248
345 347 350 347 350 344 340 336 335 342 357 359 352 337 308 283 276 272 267 264 269 266 265 260 263 270 264 277 261 260 263 269 270 271 270 260 256 252 252 249 248 248 249
348 351 356 353 353 349 347 353 1 359 356 352 347 335 318 298 281 269 272 277 279 274 268 267 263 265 272 262 269 245 249 260 271 269 270 271 261 252 250 251 250 250 248
348 345 341 347 355 356 351 351 352 344 341 345 338 325 319 307 288 278 277 279 279 275 268 268 268 268 264 268 271 273 270 266 266 261 270 269 256 256 258 254 254 251 252
346 347 340 345 350 355 354 347 340 335 339 329 328 321 309 306 293 286 281 282 278 272 271 272 273 274 275 275 272 269 267 265 276 279 273 274 270 263 254 259 265 258 253
347 348 350 346 344 345 352 356 347 340 337 336 333 330 321 310 304 293 290 288 284 281 280 280 278 277 277 276 275 271 268 265 267 269 273 268 256 264 266 258 259 257 264